Home > Weather > Salzburg > Past weeks

Flag for Austria Weather for the Past 2 Weeks in Salzburg, Salzburg, Austria

Now
43 °F

Scattered clouds.


Feels Like: 38 °F
Forecast: 34 / 54 °F
Wind: 8 mph from Southeast

Location: Salzburg-Flughafen

Current Time: Feb 6, 2016 at 11:08:33 AM

Latest Report: Feb 6, 2016 at 10:00 AM


Visibility: 18 mi

Pressure: 30.21 "Hg

Humidity: 70%

Dew point: 33 °F

Location of SalzburgLocation

Historic Weather in Salzburg — Graph

°F

Salzburg Temperature Yesterday

Maximum temperature yesterday: 40 °F (at 4:00 PM)
Minimum temperature yesterday: 34 °F (at 10:00 AM)
Average temperature yesterday: 37 °F

High & Low Weather Summary for the Past Weeks

 TemperatureHumidityPressure
High58 °F (Feb 1, 3:00 PM)100% (Jan 24, 5:00 AM)30.69 "Hg (Jan 24, 5:00 AM)
Low9 °F (Jan 22, 9:00 AM)57% (Jan 28, 1:00 PM)29.95 "Hg (Jan 30, 11:00 PM)
Average39 °F84%30.34 "Hg
* Reported Jan 22 9:00 AM — Feb 6 9:00 AM, Salzburg, Weather by CustomWeather, © 2016

Note: Actual official high and low records may vary slightly from our data, if they occured in-between our weather recording intervals... More about our weather records

Advertising

Salzburg Weather History for the Previous 24 Hours

 ConditionsComfort  
Time TempWeatherWind HumidityBarometerVisibility
9:00 AM
Sat, Feb 6
39 °FScattered clouds.8 mph78%30.23 "Hg22 mi
8:00 AM37 °FPassing clouds.8 mph83%30.25 "Hg22 mi
7:00 AM37 °FClear.6 mph83%30.24 "Hg17 mi
6:00 AM36 °FClear.7 mph86%30.25 "Hg15 mi
5:00 AM37 °FClear.7 mph84%30.26 "Hg19 mi
4:00 AM37 °FChilly.6 mph84%30.27 "Hg22 mi
3:00 AM36 °FChilly.6 mph88%30.29 "Hg17 mi
2:00 AM37 °FChilly.6 mph87%30.30 "Hg17 mi
1:00 AM36 °FChilly.5 mph89%30.32 "Hg16 mi
12:00 AM38 °FPassing clouds.6 mph88%30.33 "Hg15 mi
11:00 PM
Fri, Feb 5
37 °FPassing clouds.5 mph90%30.35 "Hg9 mi
10:00 PM38 °FOvercast.6 mph90%30.37 "Hg19 mi
9:00 PM38 °FOvercast.5 mph90%30.38 "Hg9 mi
8:00 PM38 °FOvercast.5 mph90%30.38 "Hg8 mi
7:00 PM39 °FOvercast.5 mph88%30.39 "Hg19 mi
6:00 PM39 °FOvercast.3 mph85%30.38 "Hg15 mi
5:00 PM40 °FOvercast.3 mph84%30.38 "Hg14 mi
4:00 PM40 °FOvercast.3 mph87%30.37 "Hg19 mi
3:00 PM40 °FLow clouds.5 mph87%30.39 "Hg22 mi
2:00 PM38 °FLow clouds.N/A89%30.41 "Hg14 mi
1:00 PM37 °FLow clouds.N/A90%30.44 "Hg7 mi
12:00 PM35 °FLow clouds.N/A96%30.46 "Hg4 mi
11:00 AM35 °FLight rain. Low clouds.N/A96%30.47 "Hg3 mi
Weather by CustomWeather, © 2016

See weather overviewHow to use our weather pages